Upington, South Africa

10:59 PM SAST on October 17, 2017 (GMT +0200)
Upington

Weather History for FAUP - September, 2012

Change the Weather History Date:

Saturday, September 8, 2012

  Actual Average Record
Temperature  
Mean Temperature 63 °F -  
Max Temperature 83 °F 80 °F 96 °F (2011)
Min Temperature 43 °F 50 °F 37 °F (2004)
Degree Days  
Heating Degree Days 2    
Growing Degree Days 13 (Base 50)    
Moisture  
Dew Point 31 °F    
Average Humidity 32    
Maximum Humidity 66    
Minimum Humidity 6    
Precipitation  
Precipitation 0.00 in 0.00 in - ()
Sea Level Pressure  
Sea Level Pressure 30.11 in    
Wind  
Wind Speed 3 mph ()    
Max Wind Speed 8 mph    
Max Gust Speed -    
Averages and records for this station are not official NWS values.
T = Trace of Precipitation, MM = Missing Value Source: Averaged Metar Reports

Daily Weather History Graph

Daily Weather History Graph

Search for Another Location

Airport or City:

Trip Planner

Search our weather history database for the weather conditions in past years. The results will help you decide how hot, cold, wet, or windy it might be!

Date:

Astronomy

Sep. 08, 2012 Rise Set
Actual Time 6:40 AM SAST 6:24 PM SAST
Civil Twilight 6:17 AM SAST 6:48 PM SAST
Nautical Twilight 5:49 AM SAST 7:15 PM SAST
Astronomical Twilight 5:22 AM SAST 7:42 PM SAST
Moon 12:43 AM SAST (9/8) 11:27 AM SAST (9/8)
Length of Visible Light 12h 30m
Length of Day
11h 43m
Waning Gibbous, 51% of the Moon is Illuminated
Sep 8
Waning Gibbous
Sep 8
Last Quarter
Sep 16
New
Sep 22
First Quarter
Sep 30
Full

Hourly Weather History & Observations

Time (SAST) Temp. Windchill Dew Point Humidity Pressure Visibility Wind Dir Wind Speed Gust Speed Precip Events Conditions
12:00 AM 53.6 °F - 32.0 °F 44% 30.12 in - SW 3.5 mph - N/A   Unknown
1:00 AM 51.8 °F - 32.0 °F 47% 30.12 in - Calm Calm - N/A   Unknown
2:00 AM 51 °F - 32 °F 36%  in - North 6.9 mph - -  
2:00 AM 50.0 °F - 32.0 °F 50% 30.12 in - North 6.9 mph - N/A   Unknown
3:00 AM 50.0 °F - 32.0 °F 50% 30.12 in - NNW 6.9 mph - N/A   Unknown
4:00 AM 44.6 °F - 32.0 °F 61% 30.09 in - NE 1.2 mph - N/A   Unknown
5:00 AM 46 °F - 32 °F 46%  in 25 mi NNE 3.5 mph - -  
5:00 AM 44.6 °F - 32.0 °F 61% 30.12 in - NNE 2.3 mph - N/A   Clear
6:00 AM 42.8 °F 40.1 °F 32.0 °F 66% 30.12 in - ENE 4.6 mph - N/A   Clear
6:48 AM 46.4 °F 45.2 °F 33.8 °F 62% 30.15 in - NE 3.5 mph - N/A   Clear
7:00 AM 48.2 °F - 33.8 °F 58% 30.15 in - East 2.3 mph - N/A   Clear
7:41 AM 51.8 °F - 35.6 °F 54% 30.15 in - SE 1.2 mph - N/A   Clear
8:00 AM 54 °F - 36 °F 39%  in 25 mi ESE 2.3 mph - -  
8:00 AM 53.6 °F - 35.6 °F 51% 30.15 in - ESE 1.2 mph - N/A   Clear
8:11 AM 57.2 °F - 35.6 °F 44% 30.18 in - ESE 1.2 mph - N/A   Clear
8:26 AM 60.8 °F - 33.8 °F 36% 30.18 in - Calm Calm - N/A   Clear
8:49 AM 64.4 °F - 35.6 °F 34% 30.18 in - NNE 2.3 mph - N/A   Clear
9:00 AM 64.4 °F - 33.8 °F 32% 30.18 in - North 3.5 mph - N/A   Clear
9:25 AM 68.0 °F - 35.6 °F 30% 30.18 in - North 3.5 mph - N/A   Clear
10:00 AM 69.8 °F - 32.0 °F 25% 30.18 in - NNW 3.5 mph - N/A   Clear
10:20 AM 73.4 °F - 33.8 °F 23% 30.18 in - West 3.5 mph - N/A   Clear
11:00 AM 76 °F - 34 °F 12%  in 25 mi SW 2.3 mph - -  
11:00 AM 75.2 °F - 32.0 °F 21% 30.15 in - SW 1.2 mph - N/A   Clear
12:00 PM 78.8 °F - 32.0 °F 18% 30.12 in - SSE 3.5 mph - N/A   Clear
1:00 PM 78.8 °F - 28.4 °F 16% 30.09 in - SW 2.3 mph - N/A   Clear
2:00 PM 80 °F - 27 °F 7%  in 25 mi North 5.8 mph - -  
2:00 PM 78.8 °F - 28.4 °F 16% 30.06 in - North 5.8 mph - N/A   Clear
3:00 PM 80.6 °F - 26.6 °F 14% 30.04 in - NE 4.6 mph - N/A   Clear
4:00 PM 80.6 °F - 26.6 °F 14% 30.04 in - NNE 3.5 mph - N/A   Clear
5:00 PM 81 °F - 26 °F 6%  in 25 mi WNW 4.6 mph - -  
5:00 PM 80.6 °F - 26.6 °F 14% 30.04 in - WNW 3.5 mph - N/A   Clear
6:00 PM 80.6 °F - 28.4 °F 15% 30.04 in - Calm Calm - N/A   Clear
7:00 PM 71.6 °F - 26.6 °F 19% 30.01 in - Calm Calm - N/A   Clear
8:00 PM 69 °F - 26 °F 11%  in 25 mi NNE 2.3 mph - -  
8:00 PM 68.0 °F - 26.6 °F 21% 30.04 in - NNE 1.2 mph - N/A   Clear
9:00 PM 62.6 °F - 26.6 °F 26% 30.04 in - North 3.5 mph - N/A   Unknown
10:00 PM 60.8 °F - 26.6 °F 27% 30.04 in - North 6.9 mph - N/A   Unknown
11:00 PM 58 °F - 27 °F 19%  in - North 8.1 mph - -  
11:00 PM 57.2 °F - 28.4 °F 33% 30.04 in - North 8.1 mph - N/A   Unknown